Regional Weather Roundup
Issued by NWS

Home | Current Version | Previous Version | Graphics & Text | Print | Product List | Glossary On
Versions: 1 2 3 4 5 6 7 8 9 10 11 12 13 14 15 16 17 18 19 20 21 22 23 24 25 26 27 28 29 30 31 32 33 34 35 36 37 38 39 40 41 42 43 44 45 46 47 48 49 50
000
ASUS45 KCYS 270810
RWRWY

WYOMING REGIONAL WEATHER ROUNDUP
NATIONAL WEATHER SERVICE CHEYENNE WY
200 AM MDT SUN JUL 27 2014

NOTE:  "FAIR" INDICATES FEW OR NO CLOUDS BELOW 12,000 FEET
WITH NO SIGNIFICANT WEATHER AND/OR OBSTRUCTIONS TO VISIBILITY.

WYZ001-270900-
YELLOWSTONE NATIONAL PARK

CITY           SKY/WX    TMP DP  RH WIND       PRES   REMARKS
LK YELLOWSTONE   N/A     39  30  70 NW3       30.49R
W YELLOWSTONE  NOT AVBL

$$
WYZ002>013-054>058-071-098>099-270900-
NORTHERN WYOMING

CITY           SKY/WX    TMP DP  RH WIND       PRES   REMARKS
JACKSON        CLEAR     48  32  53 N8        30.38R
CODY           NOT AVBL
GREYBULL       CLEAR     61  37  41 S9        30.23R
WORLAND        PTCLDY    59  33  37 SW5       30.24R
SHERIDAN       CLEAR     52  42  69 CALM      30.29R
BUFFALO        CLEAR     56  37  49 W10       30.34S
GILLETTE       CLEAR     49  38  65 SW6       30.29R
HULETT         FAIR      55  43  62 MISG      30.30
NEWCASTLE      FAIR      55  36  47 N7        30.28

$$
WYZ014>020-022>026-101>103-270900-
CENTRAL WYOMING

CITY           SKY/WX    TMP DP  RH WIND       PRES   REMARKS
BIG PINEY      CLEAR     45  21  38 N7        30.40S
PINEDALE       SUNNY     43  32  65 NW5       30.41S
DUBOIS         FAIR      48  23  37 NW12      30.44R
LANDER         CLEAR     64  31  28 W10       30.33S
RIVERTON       CLEAR     65  33  30 E8        30.34R
CASPER         CLEAR     56  34  43 NE8       30.34R
DOUGLAS        CLEAR     59  38  45 CALM      30.32R

$$
WYZ021-027>030-104>119-270900-
SOUTHERN WYOMING

CITY           SKY/WX    TMP DP  RH WIND       PRES   REMARKS
EVANSTON       CLEAR     63  30  28 N3        30.39F
KEMMERER       MOSUNNY   54  27  35 NW12      30.40S
FORT BRIDGER   FAIR      64  23  21 S8        30.41S
ROCK SPRINGS   CLEAR     64  24  21 NE7       30.37R
DIXON          FAIR      56  43  61 CALM      30.36S
RAWLINS        CLEAR     63  30  28 NE16      30.35S
SARATOGA       FAIR      61  43  51 S10       30.37S
LARAMIE        CLEAR     51  47  86 SE5       30.38R
CHEYENNE       CLEAR     57  51  80 CALM      30.33R
TORRINGTON     PTCLDY    65  44  46 NE9       30.23R
PINE BLUFFS    FAIR      63  59  88 CALM      30.28R

$$


USA.gov is the U.S. government's official web portal to all federal, state and local government web resources and services.